Location: Newark
(21.1200°N, 73.4000°E)
Time: 20:50:18
(UTC+00:00)

deb Explorer IX - Visible Passes

Search period start: 21 January 2020 00:00
Search period end: 31 January 2020 00:00
Orbit: 548 x 1101 km, 38.8° (Epoch: 21 January)

Date Brightness Start Highest point End Pass type
(mag) Time Alt. Az. Time Alt. Az. Time Alt. Az.
21 Jan ? 01:08:50 10° WNW 01:14:50 77° SW 01:19:53 10° SE visible
21 Jan ? 15:43:50 10° SSW 15:45:45 20° SSW 15:45:45 20° SSW visible
21 Jan ? 23:06:33 26° NE 23:06:33 26° NE 23:09:59 10° E visible
22 Jan ? 00:47:55 18° WNW 00:52:32 75° SW 00:57:45 10° SE visible
22 Jan ? 15:21:31 10° SW 15:25:03 32° SSW 15:25:03 32° SSW visible
22 Jan ? 22:45:42 20° ENE 22:45:42 20° ENE 22:47:51 10° E visible
23 Jan ? 00:27:04 30° WNW 00:30:14 74° SW 00:35:35 10° SE visible
23 Jan ? 14:59:13 10° SW 15:04:21 47° S 15:04:21 47° S visible
23 Jan ? 22:24:54 13° E 22:24:54 13° E 22:25:41 10° E visible
24 Jan ? 00:06:17 50° WNW 00:07:53 73° SW 00:13:25 10° SE visible
24 Jan ? 14:36:56 10° SW 14:43:05 53° SE 14:43:40 51° ESE visible
24 Jan ? 16:24:09 10° W 16:25:02 14° W 16:25:02 14° W visible
24 Jan ? 23:45:31 72° SW 23:45:32 72° SW 23:51:13 10° SE visible
25 Jan ? 14:14:40 10° SW 14:20:40 53° SE 14:22:57 38° E visible
25 Jan ? 16:01:52 10° W 16:04:20 23° W 16:04:20 23° W visible
25 Jan ? 23:24:47 49° SSE 23:24:47 49° SSE 23:29:00 10° SE visible
26 Jan ? 01:07:26 10° WSW 01:09:34 12° SW 01:11:38 10° SSW visible
26 Jan ? 13:52:24 10° SW 13:58:15 54° SE 14:02:13 24° ENE visible
26 Jan ? 15:39:36 10° W 15:43:35 33° WNW 15:43:35 33° WNW visible
26 Jan ? 23:04:04 29° SE 23:04:04 29° SE 23:06:45 10° SE visible
27 Jan ? 00:45:27 11° WSW 00:47:13 12° SW 00:49:26 10° SSW visible
27 Jan ? 13:30:09 10° SW 13:35:50 54° SE 13:41:26 14° ENE visible
27 Jan ? 15:17:21 10° W 15:22:48 41° NW 15:22:48 41° NW visible
27 Jan ? 22:43:22 16° SE 22:43:22 16° SE 22:44:29 10° SE visible
28 Jan ? 00:24:45 12° SW 00:24:50 12° SW 00:27:13 10° SSW visible
28 Jan ? 13:07:55 10° SW 13:13:26 55° SE 13:19:53 10° ENE visible
28 Jan ? 14:55:05 10° W 15:00:56 40° NNW 15:01:58 38° N visible
29 Jan ? 00:04:01 12° SSW 00:04:01 12° SSW 00:04:58 10° SSW visible
29 Jan ? 14:32:52 10° W 14:38:31 39° NNW 14:41:05 29° NNE visible
30 Jan ? 14:10:38 10° W 14:16:07 37° NNW 14:20:07 20° NNE visible
30 Jan ? 16:00:19 10° NW 16:01:29 13° NW 16:01:29 13° NW visible
